K0FJ-1 Weather Reports


Display with metric or nautical units.
time (UTC)temp
F
wind
direction
speed
MPH
gust
MPH
rain 1hr
in
rain 24hr
in
rain mn
in
humidity
%
barometer
mb
20260903123503 72 194 6.0 12.0 0.00 0.00 0.00 66 1011.7
20260903123003 72 191 6.0 12.0 0.00 0.00 0.00 65 1011.7
20260903122503 72 191 6.0 12.0 0.00 0.00 0.00 65 1011.6
20260903122003 73 195 6.0 14.0 0.00 0.00 0.00 64 1011.7
20260903121503 73 190 7.0 16.0 0.00 0.00 0.00 64 1011.6
20260903121003 73 186 8.0 18.0 0.00 0.00 0.00 64 1011.6
20260903120503 73 187 7.0 18.0 0.00 0.00 0.00 63 1011.5
20260903120003 73 188 6.0 13.0 0.00 0.00 0.00 63 1011.6
20260903115503 73 192 6.0 14.0 0.00 0.00 0.00 63 1011.7
20260903115003 74 191 6.0 14.0 0.00 0.00 0.00 62 1011.6
20260903114503 74 188 7.0 14.0 0.00 0.00 0.00 62 1011.6
20260903114003 74 192 6.0 14.0 0.00 0.00 0.00 62 1011.5
20260903113503 74 190 6.0 12.0 0.00 0.00 0.00 62 1011.5
20260903113003 74 192 5.0 12.0 0.00 0.00 0.00 62 1011.6
20260903112503 74 204 4.0 9.0 0.00 0.00 0.00 62 1011.7
20260903112003 74 187 6.0 15.0 0.00 0.00 0.00 62 1011.6
20260903111503 74 188 6.0 15.0 0.00 0.00 0.00 62 1011.5
20260903111003 74 206 4.0 11.0 0.00 0.00 0.00 61 1011.5
20260903110503 74 200 4.0 12.0 0.00 0.00 0.00 61 1011.6
20260903110003 75 196 6.0 14.0 0.00 0.00 0.00 61 1011.6
20260903105503 75 192 6.0 14.0 0.00 0.00 0.00 60 1011.5
20260903105003 75 193 6.0 11.0 0.00 0.00 0.00 60 1011.6
20260903104503 75 198 6.0 11.0 0.00 0.00 0.00 60 1011.7
20260903104003 75 189 7.0 16.0 0.00 0.00 0.00 59 1011.7
20260903103503 76 184 8.0 16.0 0.00 0.00 0.00 59 1011.5
20260903103003 76 181 8.0 15.0 0.00 0.00 0.00 59 1011.4
20260903102503 76 175 9.0 18.0 0.00 0.00 0.00 59 1011.3
20260903102003 76 173 9.0 18.0 0.00 0.00 0.00 59 1011.4
20260903101503 76 177 8.0 16.0 0.00 0.00 0.00 59 1011.4
20260903101003 76 176 8.0 14.0 0.00 0.00 0.00 59 1011.4
20260903100503 76 175 8.0 16.0 0.00 0.00 0.00 59 1011.3
20260903100003 76 175 8.0 16.0 0.00 0.00 0.00 59 1011.3
20260903095503 75 175 8.0 17.0 0.00 0.00 0.00 59 1011.3
20260903095003 76 178 8.0 17.0 0.00 0.00 0.00 59 1011.4
20260903094503 75 179 8.0 15.0 0.00 0.00 0.00 59 1011.4
20260903094003 75 177 7.0 15.0 0.00 0.00 0.00 59 1011.4
20260903093503 75 175 8.0 16.0 0.00 0.00 0.00 59 1011.3
20260903093003 75 177 8.0 16.0 0.00 0.00 0.00 60 1011.3
20260903092503 75 178 8.0 15.0 0.00 0.00 0.00 60 1011.3
20260903092003 75 177 8.0 15.0 0.00 0.00 0.00 61 1011.2
20260903091503 75 177 7.0 16.0 0.00 0.00 0.00 61 1011.3
20260903091003 75 177 7.0 16.0 0.00 0.00 0.00 61 1011.4
20260903090503 75 175 6.0 13.0 0.00 0.00 0.00 61 1011.4
20260903090003 75 173 6.0 14.0 0.00 0.00 0.00 61 1011.4
20260903085503 75 173 7.0 14.0 0.00 0.00 0.00 61 1011.4
20260903085003 75 175 7.0 13.0 0.00 0.00 0.00 61 1011.5
20260903084503 75 172 7.0 12.0 0.00 0.00 0.00 61 1011.5
20260903084003 75 171 7.0 16.0 0.00 0.00 0.00 61 1011.5
20260903083503 75 175 7.0 16.0 0.00 0.00 0.00 61 1011.6
20260903083003 75 176 8.0 14.0 0.00 0.00 0.00 61 1011.7
20260903082503 75 176 8.0 15.0 0.00 0.00 0.00 61 1011.8
20260903082003 75 178 7.0 15.0 0.00 0.00 0.00 61 1011.8
20260903081503 75 177 6.0 14.0 0.00 0.00 0.00 61 1011.7
20260903081003 75 178 6.0 12.0 0.00 0.00 0.00 61 1011.7
20260903080503 75 178 6.0 12.0 0.00 0.00 0.00 61 1011.8
20260903080003 75 177 6.0 12.0 0.00 0.00 0.00 61 1011.8
20260903075503 75 177 5.0 11.0 0.00 0.00 0.00 61 1011.9
20260903075003 75 175 5.0 11.0 0.00 0.00 0.00 61 1011.9
20260903074503 75 174 6.0 12.0 0.00 0.00 0.00 61 1012.1
20260903074003 75 175 7.0 14.0 0.00 0.00 0.00 60 1012.1
20260903073503 75 177 6.0 14.0 0.00 0.00 0.00 60 1012.1
20260903073003 75 176 7.0 13.0 0.00 0.00 0.00 61 1012.1
20260903072503 75 176 7.0 13.0 0.00 0.00 0.00 60 1012.1
20260903072003 75 174 6.0 12.0 0.00 0.00 0.00 60 1012.2
20260903071503 75 171 6.0 12.0 0.00 0.00 0.00 60 1012.3
20260903071003 75 172 5.0 12.0 0.00 0.00 0.00 59 1012.3
20260903070503 75 175 6.0 15.0 0.00 0.00 0.00 58 1012.2
20260903070003 76 178 6.0 15.0 0.00 0.00 0.00 58 1012.2
20260903065503 76 178 6.0 11.0 0.00 0.00 0.00 57 1012.2
20260903065003 76 179 6.0 12.0 0.00 0.00 0.00 56 1012.2
20260903064503 77 179 5.0 12.0 0.00 0.00 0.00 55 1012.1
20260903064003 77 179 5.0 11.0 0.00 0.00 0.00 54 1012.1
20260903063503 77 180 5.0 11.0 0.00 0.00 0.00 53 1012.0
20260903063003 78 178 5.0 13.0 0.00 0.00 0.00 53 1012.1
20260903062503 78 176 6.0 13.0 0.00 0.00 0.00 52 1012.1
20260903062003 78 179 6.0 15.0 0.00 0.00 0.00 52 1012.1
20260903061503 78 180 6.0 15.0 0.00 0.00 0.00 51 1012.2
20260903061003 78 178 6.0 12.0 0.00 0.00 0.00 51 1012.2
20260903060503 78 182 6.0 12.0 0.00 0.00 0.00 50 1012.2
20260903060003 78 184 6.0 12.0 0.00 0.00 0.00 50 1012.2
20260903055503 78 185 6.0 12.0 0.00 0.00 0.00 49 1012.2
20260903055003 78 184 6.0 15.0 0.00 0.00 0.00 48 1012.2
20260903054503 79 180 6.0 15.0 0.00 0.00 0.00 48 1012.2
20260903054003 79 178 5.0 12.0 0.00 0.00 0.00 47 1012.2
20260903053503 79 181 6.0 12.0 0.00 0.00 0.00 47 1012.2
20260903053003 79 181 7.0 12.0 0.00 0.00 0.00 46 1012.2
20260903052503 80 180 7.0 12.0 0.00 0.00 0.00 45 1012.3
20260903052003 80 179 6.0 12.0 0.00 0.00 0.00 45 1012.3
20260903051503 80 181 6.0 13.0 0.00 0.00 0.00 43 1012.3
20260903051003 80 180 7.0 13.0 0.00 0.00 0.00 43 1012.3
20260903050503 80 177 7.0 12.0 0.00 0.00 0.00 43 1012.3
20260903050004 80 178 6.0 11.0 0.00 0.00 0.00 42 1012.3
20260903045503 79 179 6.0 11.0 0.00 0.00 0.00 43 1012.3
20260903045003 78 178 5.0 10.0 0.00 0.00 0.00 44 1012.2
20260903044503 78 181 4.0 9.0 0.00 0.00 0.00 44 1012.4
20260903044003 78 185 3.0 7.0 0.00 0.00 0.00 45 1012.4
20260903043503 78 182 1.0 6.0 0.00 0.00 0.00 45 1012.5
20260903043003 77 206 0.0 2.0 0.00 0.00 0.00 46 1012.3
20260903042503 78 206 0.0 2.0 0.00 0.00 0.00 46 1012.3
20260903042003 78 193 0.0 1.0 0.00 0.00 0.00 46 1012.3
20260903041503 78 187 1.0 3.0 0.00 0.00 0.00 46 1012.3
20260903041003 78 176 2.0 5.0 0.00 0.00 0.00 45 1012.3
20260903040503 78 171 2.0 6.0 0.00 0.00 0.00 45 1012.2
20260903040003 78 172 3.0 8.0 0.00 0.00 0.00 46 1012.4
20260903035503 78 171 3.0 9.0 0.00 0.00 0.00 46 1012.3
20260903035003 78 177 3.0 9.0 0.00 0.00 0.00 44 1012.3
20260903034503 78 184 2.0 5.0 0.00 0.00 0.00 44 1012.2
20260903034003 78 175 2.0 6.0 0.00 0.00 0.00 43 1012.3
20260903033503 79 168 1.0 6.0 0.00 0.00 0.00 42 1012.3
20260903033003 79 154 0.0 2.0 0.00 0.00 0.00 43 1012.2
20260903032503 80 0 0.0 0.0 0.00 0.00 0.00 41 1012.3
20260903032003 80 0 0.0 0.0 0.00 0.00 0.00 40 1012.3
20260903031503 81 0 0.0 0.0 0.00 0.00 0.00 40 1012.3
20260903031003 81 192 0.0 2.0 0.00 0.00 0.00 40 1012.4
20260903030503 81 199 1.0 2.0 0.00 0.00 0.00 39 1012.3
20260903030003 81 206 1.0 3.0 0.00 0.00 0.00 38 1012.2
20260903025503 82 189 2.0 5.0 0.00 0.00 0.00 38 1012.2
20260903025003 82 185 2.0 8.0 0.00 0.00 0.00 39 1012.1
20260903024503 81 185 1.0 8.0 0.00 0.00 0.00 37 1012.1
20260903024003 81 183 0.0 4.0 0.00 0.00 0.00 37 1012.1
20260903023503 82 0 0.0 0.0 0.00 0.00 0.00 36 1012.1
20260903023003 82 215 0.0 1.0 0.00 0.00 0.00 36 1012.0
20260903022503 82 215 0.0 1.0 0.00 0.00 0.00 36 1012.0
20260903022003 83 0 0.0 0.0 0.00 0.00 0.00 35 1011.9
20260903021503 83 210 0.0 2.0 0.00 0.00 0.00 34 1011.8
20260903021003 84 207 0.0 2.0 0.00 0.00 0.00 34 1011.7
20260903020503 84 210 1.0 4.0 0.00 0.00 0.00 33 1011.7
20260903020003 84 210 2.0 4.0 0.00 0.00 0.00 33 1011.7
20260903015503 85 213 2.0 4.0 0.00 0.00 0.00 33 1011.6
20260903015003 85 214 1.0 4.0 0.00 0.00 0.00 32 1011.5
20260903014503 86 209 1.0 3.0 0.00 0.00 0.00 32 1011.5
20260903014003 86 209 1.0 3.0 0.00 0.00 0.00 31 1011.5
20260903013503 87 210 1.0 3.0 0.00 0.00 0.00 30 1011.5
20260903013003 88 212 1.0 4.0 0.00 0.00 0.00 29 1011.5
20260903012503 88 214 1.0 4.0 0.00 0.00 0.00 29 1011.4
20260903012003 89 215 2.0 3.0 0.00 0.00 0.00 28 1011.4
20260903011503 90 214 2.0 4.0 0.00 0.00 0.00 28 1011.4
20260903011003 91 213 2.0 5.0 0.00 0.00 0.00 27 1011.4
20260903010503 91 210 3.0 6.0 0.00 0.00 0.00 26 1011.3
20260903010003 92 210 3.0 6.0 0.00 0.00 0.00 25 1011.3
20260903005503 93 209 3.0 6.0 0.00 0.00 0.00 25 1011.4
20260903005003 94 209 3.0 6.0 0.00 0.00 0.00 24 1011.3
20260903004503 94 211 3.0 7.0 0.00 0.00 0.00 24 1011.2
20260903004003 95 210 4.0 7.0 0.00 0.00 0.00 24 1011.3
20260903003503 95 210 4.0 9.0 0.00 0.00 0.00 25 1011.3
20260903003003 95 214 4.0 9.0 0.00 0.00 0.00 25 1011.3
20260903002503 96 215 4.0 9.0 0.00 0.00 0.00 24 1011.3
20260903002003 96 215 4.0 12.0 0.00 0.00 0.00 24 1011.3
20260903001503 96 214 4.0 12.0 0.00 0.00 0.00 25 1011.3
20260903001003 96 213 5.0 11.0 0.00 0.00 0.00 25 1011.4
20260903000503 96 215 5.0 12.0 0.00 0.00 0.00 25 1011.3
20260903000003 96 213 6.0 12.0 0.00 0.00 0.00 25 1011.3
20260902235503 97 214 6.0 12.0 0.00 0.00 0.00 25 1011.3
20260902235003 97 215 7.0 13.0 0.00 0.00 0.00 25 1011.3
20260902234503 97 214 6.0 13.0 0.00 0.00 0.00 26 1011.3
20260902234003 97 215 6.0 11.0 0.00 0.00 0.00 26 1011.3
20260902233503 97 226 6.0 12.0 0.00 0.00 0.00 26 1011.3
20260902233003 97 226 6.0 15.0 0.00 0.00 0.00 25 1011.3
20260902232503 97 216 6.0 15.0 0.00 0.00 0.00 25 1011.3
20260902232003 98 215 6.0 17.0 0.00 0.00 0.00 25 1011.3
20260902231503 98 218 6.0 17.0 0.00 0.00 0.00 25 1011.4
20260902231003 98 217 7.0 15.0 0.00 0.00 0.00 26 1011.2
20260902230503 98 218 8.0 15.0 0.00 0.00 0.00 25 1011.2
20260902230004 98 218 6.0 13.0 0.00 0.00 0.00 25 1011.3
20260902225503 98 215 5.0 13.0 0.00 0.00 0.00 26 1011.2
20260902225003 98 215 6.0 13.0 0.00 0.00 0.00 25 1011.1
20260902224503 98 218 7.0 13.0 0.00 0.00 0.00 25 1011.1
20260902224003 98 209 7.0 17.0 0.00 0.00 0.00 25 1011.1
20260902223503 98 206 8.0 18.0 0.00 0.00 0.00 26 1011.1
20260902223003 98 210 8.0 18.0 0.00 0.00 0.00 25 1011.1
20260902222503 98 206 7.0 17.0 0.00 0.00 0.00 25 1011.2
20260902222003 98 203 8.0 18.0 0.00 0.00 0.00 25 1011.3
20260902221503 98 195 8.0 18.0 0.00 0.00 0.00 26 1011.3
20260902221003 98 197 7.0 15.0 0.00 0.00 0.00 26 1011.3
20260902220503 98 202 7.0 10.0 0.00 0.00 0.00 27 1011.3
20260902220003 98 196 8.0 18.0 0.00 0.00 0.00 27 1011.3
20260902215503 98 197 8.0 18.0 0.00 0.00 0.00 26 1011.4
20260902215003 98 203 9.0 19.0 0.00 0.00 0.00 26 1011.4
20260902214503 98 208 9.0 19.0 0.00 0.00 0.00 27 1011.5
20260902214003 98 210 7.0 17.0 0.00 0.00 0.00 27 1011.5
20260902213503 99 194 7.0 17.0 0.00 0.00 0.00 28 1011.7
20260902213003 98 200 8.0 17.0 0.00 0.00 0.00 26 1011.7
20260902212503 98 200 8.0 17.0 0.00 0.00 0.00 28 1011.7
20260902212003 98 190 8.0 17.0 0.00 0.00 0.00 27 1011.9
20260902211503 98 196 8.0 17.0 0.00 0.00 0.00 28 1012.0
20260902211003 97 200 8.0 17.0 0.00 0.00 0.00 27 1012.0
20260902210503 98 201 8.0 19.0 0.00 0.00 0.00 27 1012.1
20260902210003 97 200 8.0 19.0 0.00 0.00 0.00 27 1012.2
20260902205503 97 208 8.0 18.0 0.00 0.00 0.00 26 1012.3
20260902205003 97 206 9.0 17.0 0.00 0.00 0.00 26 1012.4
20260902204503 97 204 8.0 16.0 0.00 0.00 0.00 26 1012.3
20260902204003 97 201 8.0 19.0 0.00 0.00 0.00 24 1012.4
20260902203503 97 199 8.0 19.0 0.00 0.00 0.00 27 1012.6
20260902203003 97 208 8.0 18.0 0.00 0.00 0.00 30 1012.6
20260902202503 97 204 9.0 18.0 0.00 0.00 0.00 28 1012.7
20260902202003 96 200 8.0 18.0 0.00 0.00 0.00 29 1012.7
20260902201503 96 203 8.0 16.0 0.00 0.00 0.00 31 1012.7
20260902201003 96 209 7.0 16.0 0.00 0.00 0.00 31 1012.7
20260902200503 96 200 7.0 16.0 0.00 0.00 0.00 31 1012.7
20260902200003 96 195 6.0 13.0 0.00 0.00 0.00 34 1012.9
20260902195503 96 207 5.0 10.0 0.00 0.00 0.00 36 1012.9
20260902195003 96 215 5.0 10.0 0.00 0.00 0.00 35 1013.0
20260902194503 96 215 5.0 10.0 0.00 0.00 0.00 35 1013.1
20260902194003 95 212 5.0 10.0 0.00 0.00 0.00 36 1013.1
20260902193503 95 215 5.0 10.0 0.00 0.00 0.00 37 1013.2
20260902193003 94 208 5.0 13.0 0.00 0.00 0.00 38 1013.3
20260902192503 94 195 6.0 16.0 0.00 0.00 0.00 39 1013.4
20260902192003 93 192 7.0 16.0 0.00 0.00 0.00 39 1013.4
20260902191503 93 194 6.0 13.0 0.00 0.00 0.00 39 1013.5
20260902191003 93 191 5.0 13.0 0.00 0.00 0.00 39 1013.6
20260902190503 93 178 5.0 13.0 0.00 0.00 0.00 40 1013.5
20260902190003 93 184 5.0 13.0 0.00 0.00 0.00 40 1013.6
20260902185503 92 184 5.0 10.0 0.00 0.00 0.00 41 1013.6
20260902185003 92 177 6.0 15.0 0.00 0.00 0.00 41 1013.6
20260902184503 92 181 6.0 15.0 0.00 0.00 0.00 41 1013.7
20260902184003 91 173 6.0 14.0 0.00 0.00 0.00 42 1013.9
20260902183503 91 169 5.0 11.0 0.00 0.00 0.00 42 1013.9
20260902183003 91 182 6.0 12.0 0.00 0.00 0.00 44 1013.9
20260902182503 91 182 6.0 12.0 0.00 0.00 0.00 42 1014.1
20260902182003 91 180 5.0 11.0 0.00 0.00 0.00 43 1014.0
20260902181503 90 189 4.0 10.0 0.00 0.00 0.00 44 1014.1
20260902181003 90 184 5.0 14.0 0.00 0.00 0.00 46 1014.2
20260902180503 90 178 5.0 14.0 0.00 0.00 0.00 44 1014.3
20260902180005 90 181 5.0 11.0 0.00 0.00 0.00 45 1014.3
20260902175503 89 192 5.0 12.0 0.00 0.00 0.00 46 1014.3
20260902175003 89 189 6.0 12.0 0.00 0.00 0.00 47 1014.4
20260902174503 89 185 6.0 13.0 0.00 0.00 0.00 47 1014.4
20260902174003 88 186 5.0 13.0 0.00 0.00 0.00 47 1014.5
20260902173503 88 191 4.0 11.0 0.00 0.00 0.00 48 1014.5
20260902173003 88 195 5.0 11.0 0.00 0.00 0.00 48 1014.6
20260902172503 87 190 5.0 10.0 0.00 0.00 0.00 47 1014.6
20260902172003 87 197 4.0 10.0 0.00 0.00 0.00 48 1014.5
20260902171503 87 201 4.0 9.0 0.00 0.00 0.00 49 1014.6
20260902171003 86 202 3.0 9.0 0.00 0.00 0.00 50 1014.5
20260902170503 86 214 4.0 8.0 0.00 0.00 0.00 51 1014.6
20260902170003 85 203 4.0 10.0 0.00 0.00 0.00 52 1014.7
20260902165503 85 189 4.0 10.0 0.00 0.00 0.00 51 1014.9
20260902165003 84 200 4.0 9.0 0.00 0.00 0.00 54 1015.0
20260902164503 84 202 3.0 7.0 0.00 0.00 0.00 55 1015.0
20260902164003 83 190 3.0 8.0 0.00 0.00 0.00 57 1015.0
20260902163503 82 203 3.0 8.0 0.00 0.00 0.00 55 1014.9
20260902163003 82 203 4.0 7.0 0.00 0.00 0.00 56 1015.0
20260902162504 82 191 5.0 10.0 0.00 0.00 0.00 55 1014.9
20260902162003 82 191 5.0 10.0 0.00 0.00 0.00 54 1015.0
20260902161503 82 190 4.0 10.0 0.00 0.00 0.00 55 1015.0
20260902161003 82 195 4.0 10.0 0.00 0.00 0.00 56 1015.0
20260902160503 81 191 5.0 12.0 0.00 0.00 0.00 57 1015.0
20260902160003 81 183 5.0 12.0 0.00 0.00 0.00 56 1014.9
20260902155503 80 191 4.0 9.0 0.00 0.00 0.00 58 1014.9
20260902155003 80 200 4.0 8.0 0.00 0.00 0.00 58 1014.9
20260902154503 79 197 4.0 10.0 0.00 0.00 0.00 59 1014.9
20260902154003 79 192 5.0 10.0 0.00 0.00 0.00 59 1014.9
20260902153503 79 186 5.0 10.0 0.00 0.00 0.00 60 1015.0
20260902153003 78 189 5.0 10.0 0.00 0.00 0.00 61 1014.9
20260902152503 78 210 4.0 10.0 0.00 0.00 0.00 61 1014.9
20260902152003 77 220 4.0 10.0 0.00 0.00 0.00 62 1014.9
20260902151503 77 217 3.0 8.0 0.00 0.00 0.00 62 1014.9
20260902151003 76 202 4.0 9.0 0.00 0.00 0.00 64 1014.9
20260902150503 76 193 3.0 9.0 0.00 0.00 0.00 66 1014.9
20260902150003 76 197 3.0 11.0 0.00 0.00 0.00 66 1014.9
20260902145503 75 187 5.0 12.0 0.00 0.00 0.00 67 1015.0
20260902145003 75 187 6.0 14.0 0.00 0.00 0.00 65 1015.1
20260902144503 74 199 5.0 14.0 0.00 0.00 0.00 67 1015.1
20260902144003 74 208 6.0 11.0 0.00 0.00 0.00 67 1015.0
20260902143503 74 212 5.0 11.0 0.00 0.00 0.00 68 1015.0
20260902143003 73 210 4.0 10.0 0.00 0.00 0.00 68 1015.0
20260902142503 73 202 3.0 8.0 0.00 0.00 0.00 70 1015.1
20260902142003 73 202 4.0 9.0 0.00 0.00 0.00 69 1015.0
20260902141503 73 206 4.0 9.0 0.00 0.00 0.00 70 1015.1
20260902141003 72 202 3.0 9.0 0.00 0.00 0.00 71 1015.1
20260902140503 72 191 4.0 9.0 0.00 0.00 0.00 71 1015.2
20260902140003 71 187 5.0 10.0 0.00 0.00 0.00 72 1015.2
20260902135503 71 188 4.0 10.0 0.00 0.00 0.00 72 1015.2
20260902135003 70 190 3.0 7.0 0.00 0.00 0.00 74 1015.2
20260902134503 70 192 3.0 6.0 0.00 0.00 0.00 74 1015.1
20260902134003 69 189 2.0 5.0 0.00 0.00 0.00 75 1015.1
20260902133503 69 183 2.0 6.0 0.00 0.00 0.00 76 1015.1
20260902133003 69 178 2.0 6.0 0.00 0.00 0.00 76 1015.1
20260902132503 68 180 3.0 6.0 0.00 0.00 0.00 77 1015.1
20260902132003 68 182 3.0 6.0 0.00 0.00 0.00 77 1015.1
20260902131503 68 181 3.0 7.0 0.00 0.00 0.00 77 1015.1
20260902131003 68 188 3.0 7.0 0.00 0.00 0.00 77 1015.2
20260902130503 68 190 3.0 5.0 0.00 0.00 0.00 77 1015.2
20260902130003 67 187 2.0 5.0 0.00 0.00 0.00 77 1015.2
20260902125503 67 186 2.0 6.0 0.00 0.00 0.00 77 1015.1
20260902125003 67 180 2.0 6.0 0.00 0.00 0.00 77 1015.2
20260902124503 67 183 2.0 5.0 0.00 0.00 0.00 77 1015.0
20260902124003 67 192 2.0 5.0 0.00 0.00 0.00 77 1015.2